Time,TemperatureF,DewpointF,PressureIn,WindDirection,WindDirectionDegrees,WindSpeedMPH,WindSpeedGustMPH,Humidity,HourlyPrecipIn,Conditions,Clouds,dailyrainin,SoftwareType,DateUTC
2013-03-06 00:00:00,56.9,32.2,30.24,NNE,15,12.2,14.2,39,0.00,,---,0.00,VWS V14.01,2013-03-06 06:00:00,
2013-03-06 00:05:00,56.6,32.0,30.24,NNE,32,8.2,15.2,39,0.00,,---,0.00,VWS V14.01,2013-03-06 06:05:00,
2013-03-06 00:10:00,56.6,31.3,30.24,NNE,24,13.2,14.2,38,0.00,,---,0.00,VWS V14.01,2013-03-06 06:10:00,
2013-03-06 00:15:00,56.6,31.3,30.24,NNE,15,5.2,15.2,38,0.00,,---,0.00,VWS V14.01,2013-03-06 06:15:00,
2013-03-06 00:20:00,56.6,31.3,30.25,NNE,17,6.2,18.2,38,0.00,,---,0.00,VWS V14.01,2013-03-06 06:20:00,
2013-03-06 00:25:00,56.5,31.2,30.25,NNE,20,10.2,17.2,38,0.00,,---,0.00,VWS V14.01,2013-03-06 06:25:00,
2013-03-06 00:30:00,56.3,31.0,30.25,NNE,16,10.2,15.2,38,0.00,,---,0.00,VWS V14.01,2013-03-06 06:30:00,
2013-03-06 00:35:00,56.3,31.0,30.24,NNE,23,10.2,16.2,38,0.00,,---,0.00,VWS V14.01,2013-03-06 06:35:00,
2013-03-06 00:40:00,56.2,31.6,30.24,North,5,12.2,20.2,39,0.00,,---,0.00,VWS V14.01,2013-03-06 06:40:00,
2013-03-06 00:45:00,56.0,31.4,30.24,NNE,13,11.2,16.2,39,0.00,,---,0.00,VWS V14.01,2013-03-06 06:45:00,
2013-03-06 00:50:00,55.9,32.0,30.24,North,5,11.2,15.2,40,0.00,,---,0.00,VWS V14.01,2013-03-06 06:50:00,
2013-03-06 00:55:00,55.9,32.0,30.24,NNE,19,12.2,16.2,40,0.00,,---,0.00,VWS V14.01,2013-03-06 06:55:00,
2013-03-06 01:00:00,55.7,31.8,30.24,North,5,8.2,17.2,40,0.00,,---,0.00,VWS V14.01,2013-03-06 07:00:00,
2013-03-06 01:05:00,55.6,31.7,30.24,North,9,16.2,17.2,40,0.00,,---,0.00,VWS V14.01,2013-03-06 07:05:00,
2013-03-06 01:10:00,55.4,31.5,30.24,NNE,30,6.2,15.2,40,0.00,,---,0.00,VWS V14.01,2013-03-06 07:10:00,
2013-03-06 01:15:00,55.3,31.4,30.24,NNW,346,11.2,14.2,40,0.00,,---,0.00,VWS V14.01,2013-03-06 07:15:00,
2013-03-06 01:20:00,55.3,31.4,30.24,NNE,21,13.2,19.2,40,0.00,,---,0.00,VWS V14.01,2013-03-06 07:20:00,
2013-03-06 01:25:00,55.1,31.2,30.24,NE,53,6.2,21.2,40,0.00,,---,0.00,VWS V14.01,2013-03-06 07:25:00,
2013-03-06 01:30:00,55.0,31.8,30.24,NE,41,11.2,18.2,41,0.00,,---,0.00,VWS V14.01,2013-03-06 07:30:00,
2013-03-06 01:35:00,54.7,31.5,30.24,North,360,6.2,19.2,41,0.00,,---,0.00,VWS V14.01,2013-03-06 07:35:00,
2013-03-06 01:40:00,54.5,30.7,30.24,NNE,17,6.2,26.2,40,0.00,,---,0.00,VWS V14.01,2013-03-06 07:40:00,
2013-03-06 01:45:00,54.2,31.0,30.24,North,355,12.2,16.2,41,0.00,,---,0.00,VWS V14.01,2013-03-06 07:45:00,
2013-03-06 01:50:00,54.2,31.0,30.24,NNE,26,13.2,22.2,41,0.00,,---,0.00,VWS V14.01,2013-03-06 07:50:00,
2013-03-06 01:55:00,54.1,30.9,30.24,NNE,23,7.2,20.2,41,0.00,,---,0.00,VWS V14.01,2013-03-06 07:55:00,
2013-03-06 02:00:00,54.1,30.9,30.24,NE,34,10.2,22.2,41,0.00,,---,0.00,VWS V14.01,2013-03-06 08:00:00,
2013-03-06 02:05:00,53.9,30.1,30.24,North,11,13.2,18.2,40,0.00,,---,0.00,VWS V14.01,2013-03-06 08:05:00,
2013-03-06 02:10:00,53.8,30.1,30.24,NNE,22,12.2,17.2,40,0.00,,---,0.00,VWS V14.01,2013-03-06 08:10:00,
2013-03-06 02:15:00,53.6,30.5,30.24,North,11,10.2,17.2,41,0.00,,---,0.00,VWS V14.01,2013-03-06 08:15:00,
2013-03-06 02:20:00,53.3,30.8,30.24,NNE,24,11.2,16.2,42,0.00,,---,0.00,VWS V14.01,2013-03-06 08:20:00,
2013-03-06 02:25:00,53.3,29.6,30.24,NNE,30,7.2,17.2,40,0.00,,---,0.00,VWS V14.01,2013-03-06 08:25:00,
2013-03-06 02:30:00,53.3,30.2,30.24,NE,43,6.2,18.2,41,0.00,,---,0.00,VWS V14.01,2013-03-06 08:30:00,
2013-03-06 02:35:00,53.2,29.5,30.23,North,9,10.2,17.2,40,0.00,,---,0.00,VWS V14.01,2013-03-06 08:35:00,
2013-03-06 02:40:00,53.2,29.5,30.23,NE,34,10.2,21.2,40,0.00,,---,0.00,VWS V14.01,2013-03-06 08:40:00,
2013-03-06 02:45:00,53.2,29.5,30.23,North,355,20.2,20.2,40,0.00,,---,0.00,VWS V14.01,2013-03-06 08:45:00,
2013-03-06 02:50:00,52.9,29.2,30.24,NE,38,11.2,18.2,40,0.00,,---,0.00,VWS V14.01,2013-03-06 08:50:00,
2013-03-06 02:55:00,52.9,28.6,30.24,NE,50,8.2,16.2,39,0.00,,---,0.00,VWS V14.01,2013-03-06 08:55:00,
2013-03-06 03:00:00,52.9,28.6,30.24,NE,34,12.2,18.2,39,0.00,,---,0.00,VWS V14.01,2013-03-06 09:00:00,
2013-03-06 03:05:00,52.8,28.5,30.23,NNE,22,16.2,20.2,39,0.00,,---,0.00,VWS V14.01,2013-03-06 09:05:00,
2013-03-06 03:10:00,52.8,28.5,30.23,NE,38,13.2,19.2,39,0.00,,---,0.00,VWS V14.01,2013-03-06 09:10:00,
2013-03-06 03:15:00,52.6,28.4,30.23,NNE,22,7.2,17.2,39,0.00,,---,0.00,VWS V14.01,2013-03-06 09:15:00,
2013-03-06 03:20:00,52.5,27.6,30.24,NE,53,14.2,16.2,38,0.00,,---,0.00,VWS V14.01,2013-03-06 09:20:00,
2013-03-06 03:25:00,52.6,28.4,30.24,NNE,26,11.2,17.2,39,0.00,,---,0.00,VWS V14.01,2013-03-06 09:25:00,
2013-03-06 03:30:00,52.5,28.3,30.24,NNE,16,8.2,20.2,39,0.00,,---,0.00,VWS V14.01,2013-03-06 09:30:00,
2013-03-06 03:35:00,52.5,28.9,30.24,NNE,22,12.2,14.2,40,0.00,,---,0.00,VWS V14.01,2013-03-06 09:35:00,
2013-03-06 03:40:00,52.5,27.6,30.24,NE,34,12.2,20.2,38,0.00,,---,0.00,VWS V14.01,2013-03-06 09:40:00,
2013-03-06 03:45:00,52.5,27.6,30.24,NNE,25,15.2,18.2,38,0.00,,---,0.00,VWS V14.01,2013-03-06 09:45:00,
2013-03-06 03:50:00,52.5,27.6,30.24,NNE,31,13.2,18.2,38,0.00,,---,0.00,VWS V14.01,2013-03-06 09:50:00,
2013-03-06 03:55:00,52.2,27.4,30.24,North,350,11.2,20.2,38,0.00,,---,0.00,VWS V14.01,2013-03-06 09:55:00,
2013-03-06 04:00:00,52.0,27.8,30.24,North,355,10.2,16.2,39,0.00,,---,0.00,VWS V14.01,2013-03-06 10:00:00,
2013-03-06 04:05:00,51.9,28.4,30.24,NE,38,6.2,20.2,40,0.00,,---,0.00,VWS V14.01,2013-03-06 10:05:00,
2013-03-06 04:10:00,51.7,28.8,30.24,NNE,30,10.2,15.2,41,0.00,,---,0.00,VWS V14.01,2013-03-06 10:10:00,
2013-03-06 04:15:00,51.4,29.1,30.24,NNE,32,13.2,15.2,42,0.00,,---,0.00,VWS V14.01,2013-03-06 10:15:00,
2013-03-06 04:20:00,51.4,29.1,30.25,NNE,18,8.2,17.2,42,0.00,,---,0.00,VWS V14.01,2013-03-06 10:20:00,
2013-03-06 04:25:00,51.1,29.4,30.25,NE,37,7.2,13.2,43,0.00,,---,0.00,VWS V14.01,2013-03-06 10:25:00,
2013-03-06 04:30:00,51.1,30.0,30.25,NNE,25,13.2,14.2,44,0.00,,---,0.00,VWS V14.01,2013-03-06 10:30:00,
2013-03-06 04:35:00,51.0,29.9,30.26,NNE,23,7.2,14.2,44,0.00,,---,0.00,VWS V14.01,2013-03-06 10:35:00,
2013-03-06 04:40:00,50.8,30.2,30.26,NE,36,11.2,15.2,45,0.00,,---,0.00,VWS V14.01,2013-03-06 10:40:00,
2013-03-06 04:45:00,50.7,30.1,30.26,North,355,11.2,17.2,45,0.00,,---,0.00,VWS V14.01,2013-03-06 10:45:00,
2013-03-06 04:50:00,50.5,30.0,30.26,NNE,12,10.2,16.2,45,0.00,,---,0.00,VWS V14.01,2013-03-06 10:50:00,
2013-03-06 04:55:00,50.4,29.9,30.26,NE,51,10.2,16.2,45,0.00,,---,0.00,VWS V14.01,2013-03-06 10:55:00,
2013-03-06 05:00:00,50.2,30.2,30.26,NNE,14,7.2,11.2,46,0.00,,---,0.00,VWS V14.01,2013-03-06 11:00:00,
2013-03-06 05:05:00,50.2,30.2,30.26,NE,40,6.2,15.2,46,0.00,,---,0.00,VWS V14.01,2013-03-06 11:05:00,
2013-03-06 05:10:00,50.1,30.7,30.26,NNE,28,9.2,16.2,47,0.00,,---,0.00,VWS V14.01,2013-03-06 11:10:00,
2013-03-06 05:15:00,49.9,31.0,30.26,NNE,25,8.2,15.2,48,0.00,,---,0.00,VWS V14.01,2013-03-06 11:15:00,
2013-03-06 05:20:00,49.8,31.4,30.27,NNE,19,7.2,16.2,49,0.00,,---,0.00,VWS V14.01,2013-03-06 11:20:00,
2013-03-06 05:25:00,49.8,31.4,30.27,North,11,6.2,12.2,49,0.00,,---,0.00,VWS V14.01,2013-03-06 11:25:00,
2013-03-06 05:29:00,49.5,31.6,30.27,North,5,5.2,11.2,50,0.00,,---,0.00,VWS V14.01,2013-03-06 11:29:00,
2013-03-06 05:30:00,48.5,34.0,30.30,NE,34,4.2,15.2,57,0.00,,---,0.00,VWS V14.01,2013-03-06 11:30:00,
2013-03-06 05:34:00,49.4,31.6,30.27,NNE,26,6.2,11.2,50,0.00,,---,0.00,VWS V14.01,2013-03-06 11:34:00,
2013-03-06 05:35:00,48.3,33.8,30.30,North,5,8.2,13.2,57,0.00,,---,0.00,VWS V14.01,2013-03-06 11:35:00,
2013-03-06 05:39:00,49.2,31.9,30.27,NNE,22,8.2,11.2,51,0.00,,---,0.00,VWS V14.01,2013-03-06 11:39:00,
2013-03-06 05:40:00,48.2,33.7,30.30,NE,35,4.2,10.2,57,0.00,,---,0.00,VWS V14.01,2013-03-06 11:40:00,
2013-03-06 05:44:00,49.2,32.3,30.27,NNE,24,7.2,8.2,52,0.00,,---,0.00,VWS V14.01,2013-03-06 11:44:00,
2013-03-06 05:45:00,48.0,33.5,30.30,NNE,15,5.2,10.2,57,0.00,,---,0.00,VWS V14.01,2013-03-06 11:45:00,
2013-03-06 05:49:00,49.1,32.7,30.29,North,11,5.2,11.2,53,0.00,,---,0.00,VWS V14.01,2013-03-06 11:49:00,
2013-03-06 05:50:00,48.0,33.9,30.30,NNE,23,3.2,12.2,58,0.00,,---,0.00,VWS V14.01,2013-03-06 11:50:00,
2013-03-06 05:54:00,48.9,33.0,30.29,NNE,26,6.2,7.2,54,0.00,,---,0.00,VWS V14.01,2013-03-06 11:54:00,
2013-03-06 05:55:00,48.0,33.9,30.30,NNE,17,6.2,11.2,58,0.00,,---,0.00,VWS V14.01,2013-03-06 11:55:00,
2013-03-06 05:59:00,48.8,32.9,30.29,North,5,4.2,8.2,54,0.00,,---,0.00,VWS V14.01,2013-03-06 11:59:00,
2013-03-06 06:00:00,48.0,34.4,30.31,NNE,21,11.2,11.2,59,0.00,,---,0.00,VWS V14.01,2013-03-06 12:00:00,
2013-03-06 06:05:00,48.8,32.9,30.29,NNE,16,6.2,11.2,54,0.00,,---,0.00,VWS V14.01,2013-03-06 12:05:00,
2013-03-06 06:10:00,48.6,33.2,30.29,North,355,8.2,8.2,55,0.00,,---,0.00,VWS V14.01,2013-03-06 12:10:00,
2013-03-06 06:15:00,48.6,33.6,30.29,North,5,5.2,8.2,56,0.00,,---,0.00,VWS V14.01,2013-03-06 12:15:00,
2013-03-06 06:19:00,48.6,33.6,30.29,NE,42,5.2,10.2,56,0.00,,---,0.00,VWS V14.01,2013-03-06 12:19:00,
2013-03-06 06:20:00,48.2,34.6,30.32,North,355,5.2,11.2,59,0.00,,---,0.00,VWS V14.01,2013-03-06 12:20:00,
2013-03-06 06:24:00,48.5,33.5,30.29,NE,48,6.2,11.2,56,0.00,,---,0.00,VWS V14.01,2013-03-06 12:24:00,
2013-03-06 06:25:00,48.3,34.2,30.32,NNE,17,5.2,9.2,58,0.00,,---,0.00,VWS V14.01,2013-03-06 12:25:00,
2013-03-06 06:29:00,48.3,33.8,30.29,NNE,17,7.2,15.2,57,0.00,,---,0.00,VWS V14.01,2013-03-06 12:29:00,
2013-03-06 06:30:00,48.6,34.5,30.32,North,5,8.2,11.2,58,0.00,,---,0.00,VWS V14.01,2013-03-06 12:30:00,
2013-03-06 06:34:00,48.3,33.3,30.30,NE,40,7.2,13.2,56,0.00,,---,0.00,VWS V14.01,2013-03-06 12:34:00,
2013-03-06 06:35:00,48.9,34.8,30.32,NNE,17,8.2,11.2,58,0.00,,---,0.00,VWS V14.01,2013-03-06 12:35:00,
2013-03-06 06:40:00,48.3,33.8,30.30,NE,45,5.2,10.2,57,0.00,,---,0.00,VWS V14.01,2013-03-06 12:40:00,
2013-03-06 06:45:00,48.0,33.5,30.30,NNE,19,7.2,8.2,57,0.00,,---,0.00,VWS V14.01,2013-03-06 12:45:00,
2013-03-06 06:50:00,48.0,33.9,30.30,NNE,30,6.2,12.2,58,0.00,,---,0.00,VWS V14.01,2013-03-06 12:50:00,
2013-03-06 06:55:00,48.0,33.9,30.30,NNE,19,4.2,11.2,58,0.00,,---,0.00,VWS V14.01,2013-03-06 12:55:00,
2013-03-06 06:59:00,48.0,34.4,30.30,NNE,17,4.2,8.2,59,0.00,,---,0.00,VWS V14.01,2013-03-06 12:59:00,
2013-03-06 07:00:00,49.8,34.8,30.34,North,360,10.2,15.2,56,0.00,,---,0.00,VWS V14.01,2013-03-06 13:00:00,
2013-03-06 07:04:00,47.9,34.3,30.31,NNE,15,6.2,11.2,59,0.00,,---,0.00,VWS V14.01,2013-03-06 13:04:00,
2013-03-06 07:05:00,49.9,34.8,30.34,North,9,6.2,14.2,56,0.00,,---,0.00,VWS V14.01,2013-03-06 13:05:00,
2013-03-06 07:09:00,47.9,34.3,30.31,NNE,21,4.2,9.2,59,0.00,,---,0.00,VWS V14.01,2013-03-06 13:09:00,
2013-03-06 07:10:00,50.2,34.7,30.34,NNE,28,10.2,15.2,55,0.00,,---,0.00,VWS V14.01,2013-03-06 13:10:00,
2013-03-06 07:14:00,48.0,34.4,30.31,NNE,13,12.2,12.2,59,0.00,,---,0.00,VWS V14.01,2013-03-06 13:14:00,
2013-03-06 07:15:00,50.4,34.4,30.34,North,5,13.2,15.2,54,0.00,,---,0.00,VWS V14.01,2013-03-06 13:15:00,
2013-03-06 07:19:00,48.0,34.4,30.32,North,360,6.2,11.2,59,0.00,,---,0.00,VWS V14.01,2013-03-06 13:19:00,
2013-03-06 07:20:00,50.5,34.5,30.34,NNE,17,10.2,15.2,54,0.00,,---,0.00,VWS V14.01,2013-03-06 13:20:00,
2013-03-06 07:24:00,48.2,34.1,30.32,NNE,16,4.2,8.2,58,0.00,,---,0.00,VWS V14.01,2013-03-06 13:24:00,
2013-03-06 07:25:00,50.4,33.9,30.34,NNE,18,11.2,17.2,53,0.00,,---,0.00,VWS V14.01,2013-03-06 13:25:00,
2013-03-06 07:29:00,48.5,34.4,30.32,ENE,65,10.2,11.2,58,0.00,,---,0.00,VWS V14.01,2013-03-06 13:29:00,
2013-03-06 07:30:00,50.7,34.2,30.35,North,360,10.2,15.2,53,0.00,,---,0.00,VWS V14.01,2013-03-06 13:30:00,
2013-03-06 07:34:00,48.8,34.7,30.32,North,360,6.2,8.2,58,0.00,,---,0.00,VWS V14.01,2013-03-06 13:34:00,
2013-03-06 07:35:00,51.1,33.6,30.35,NNE,16,10.2,19.2,51,0.00,,---,0.00,VWS V14.01,2013-03-06 13:35:00,
2013-03-06 07:39:00,49.1,35.0,30.32,North,5,5.2,12.2,58,0.00,,---,0.00,VWS V14.01,2013-03-06 13:39:00,
2013-03-06 07:40:00,51.3,34.3,30.35,North,9,7.2,15.2,52,0.00,,---,0.00,VWS V14.01,2013-03-06 13:40:00,
2013-03-06 07:44:00,49.4,34.8,30.32,NNW,342,6.2,11.2,57,0.00,,---,0.00,VWS V14.01,2013-03-06 13:44:00,
2013-03-06 07:45:00,51.3,34.3,30.35,North,5,10.2,17.2,52,0.00,,---,0.00,VWS V14.01,2013-03-06 13:45:00,
2013-03-06 07:49:00,49.4,34.8,30.33,North,360,11.2,13.2,57,0.00,,---,0.00,VWS V14.01,2013-03-06 13:49:00,
2013-03-06 07:50:00,51.4,34.4,30.35,NNE,27,13.2,17.2,52,0.00,,---,0.00,VWS V14.01,2013-03-06 13:50:00,
2013-03-06 07:54:00,49.5,34.9,30.33,NNW,338,5.2,12.2,57,0.00,,---,0.00,VWS V14.01,2013-03-06 13:54:00,
2013-03-06 07:55:00,51.9,35.3,30.35,NNE,32,6.2,15.2,53,0.00,,---,0.00,VWS V14.01,2013-03-06 13:55:00,
2013-03-06 07:59:00,49.6,34.6,30.33,NE,40,10.2,12.2,56,0.00,,---,0.00,VWS V14.01,2013-03-06 13:59:00,
2013-03-06 08:00:00,51.9,34.4,30.35,NE,37,6.2,14.2,51,0.00,,---,0.00,VWS V14.01,2013-03-06 14:00:00,
2013-03-06 08:04:00,49.9,34.8,30.34,NNW,346,6.2,13.2,56,0.00,,---,0.00,VWS V14.01,2013-03-06 14:04:00,
2013-03-06 08:05:00,52.2,34.6,30.35,ENE,57,13.2,17.2,51,0.00,,---,0.00,VWS V14.01,2013-03-06 14:05:00,
2013-03-06 08:09:00,50.1,34.6,30.34,NNE,19,8.2,13.2,55,0.00,,---,0.00,VWS V14.01,2013-03-06 14:09:00,
2013-03-06 08:10:00,52.2,34.6,30.35,North,9,11.2,17.2,51,0.00,,---,0.00,VWS V14.01,2013-03-06 14:10:00,
2013-03-06 08:14:00,50.4,34.9,30.34,North,360,6.2,12.2,55,0.00,,---,0.00,VWS V14.01,2013-03-06 14:14:00,
2013-03-06 08:15:00,52.3,35.2,30.35,NW,312,7.2,14.2,52,0.00,,---,0.00,VWS V14.01,2013-03-06 14:15:00,
2013-03-06 08:19:00,50.5,34.5,30.34,North,360,10.2,13.2,54,0.00,,---,0.00,VWS V14.01,2013-03-06 14:19:00,
2013-03-06 08:20:00,52.8,35.2,30.35,North,360,12.2,17.2,51,0.00,,---,0.00,VWS V14.01,2013-03-06 14:20:00,
2013-03-06 08:24:00,50.4,34.4,30.34,NNE,25,10.2,17.2,54,0.00,,---,0.00,VWS V14.01,2013-03-06 14:24:00,
2013-03-06 08:25:00,53.1,35.0,30.35,North,360,10.2,15.2,50,0.00,,---,0.00,VWS V14.01,2013-03-06 14:25:00,
2013-03-06 08:29:00,50.7,34.2,30.34,North,11,7.2,15.2,53,0.00,,---,0.00,VWS V14.01,2013-03-06 14:29:00,
2013-03-06 08:30:00,53.5,35.3,30.36,NE,48,7.2,15.2,50,0.00,,---,0.00,VWS V14.01,2013-03-06 14:30:00,
2013-03-06 08:34:00,51.1,34.1,30.35,North,360,6.2,14.2,52,0.00,,---,0.00,VWS V14.01,2013-03-06 14:34:00,
2013-03-06 08:35:00,53.8,36.1,30.36,North,9,13.2,18.2,51,0.00,,---,0.00,VWS V14.01,2013-03-06 14:35:00,
2013-03-06 08:39:00,51.3,34.3,30.35,North,355,12.2,14.2,52,0.00,,---,0.00,VWS V14.01,2013-03-06 14:39:00,
2013-03-06 08:40:00,53.6,35.9,30.36,NNE,28,7.2,18.2,51,0.00,,---,0.00,VWS V14.01,2013-03-06 14:40:00,
2013-03-06 08:44:00,51.3,34.3,30.35,NNE,28,10.2,17.2,52,0.00,,---,0.00,VWS V14.01,2013-03-06 14:44:00,
2013-03-06 08:45:00,53.9,36.7,30.36,North,5,13.2,16.2,52,0.00,,---,0.00,VWS V14.01,2013-03-06 14:45:00,
2013-03-06 08:49:00,51.4,34.4,30.35,North,5,13.2,17.2,52,0.00,,---,0.00,VWS V14.01,2013-03-06 14:49:00,
2013-03-06 08:50:00,54.2,37.0,30.36,NE,49,7.2,18.2,52,0.00,,---,0.00,VWS V14.01,2013-03-06 14:50:00,
2013-03-06 08:54:00,51.6,34.6,30.35,NNE,19,6.2,13.2,52,0.00,,---,0.00,VWS V14.01,2013-03-06 14:54:00,
2013-03-06 08:55:00,54.2,36.5,30.36,NE,51,13.2,17.2,51,0.00,,---,0.00,VWS V14.01,2013-03-06 14:55:00,
2013-03-06 08:59:00,51.9,34.4,30.35,North,360,11.2,14.2,51,0.00,,---,0.00,VWS V14.01,2013-03-06 14:59:00,
2013-03-06 09:00:00,54.2,37.0,30.36,NE,47,12.2,16.2,52,0.00,,---,0.00,VWS V14.01,2013-03-06 15:00:00,
2013-03-06 09:04:00,52.2,34.6,30.35,NNE,32,8.2,13.2,51,0.00,,---,0.00,VWS V14.01,2013-03-06 15:04:00,
2013-03-06 09:05:00,54.5,37.2,30.36,NE,43,18.2,18.2,52,0.00,,---,0.00,VWS V14.01,2013-03-06 15:05:00,
2013-03-06 09:09:00,52.0,34.9,30.35,NNE,28,9.2,17.2,52,0.00,,---,0.00,VWS V14.01,2013-03-06 15:09:00,
2013-03-06 09:10:00,54.1,37.4,30.36,NNE,15,5.2,18.2,53,0.00,,---,0.00,VWS V14.01,2013-03-06 15:10:00,
2013-03-06 09:14:00,52.2,35.1,30.35,NE,55,6.2,14.2,52,0.00,,---,0.00,VWS V14.01,2013-03-06 15:14:00,
2013-03-06 09:15:00,54.1,37.4,30.35,NNE,28,12.2,19.2,53,0.00,,---,0.00,VWS V14.01,2013-03-06 15:15:00,
2013-03-06 09:19:00,52.8,35.7,30.35,NNW,341,11.2,17.2,52,0.00,,---,0.00,VWS V14.01,2013-03-06 15:19:00,
2013-03-06 09:20:00,53.9,37.7,30.35,NE,41,15.2,21.2,54,0.00,,---,0.00,VWS V14.01,2013-03-06 15:20:00,
2013-03-06 09:24:00,52.9,35.8,30.35,North,9,10.2,15.2,52,0.00,,---,0.00,VWS V14.01,2013-03-06 15:24:00,
2013-03-06 09:25:00,53.8,38.0,30.35,NNE,27,8.2,22.2,55,0.00,,---,0.00,VWS V14.01,2013-03-06 15:25:00,
2013-03-06 09:29:00,53.3,35.2,30.35,NE,44,11.2,15.2,50,0.00,,---,0.00,VWS V14.01,2013-03-06 15:29:00,
2013-03-06 09:30:00,54.4,38.6,30.35,North,5,14.2,17.2,55,0.00,,---,0.00,VWS V14.01,2013-03-06 15:30:00,
2013-03-06 09:34:00,53.9,35.7,30.36,NNW,346,11.2,18.2,50,0.00,,---,0.00,VWS V14.01,2013-03-06 15:34:00,
2013-03-06 09:35:00,54.4,38.6,30.35,NNE,19,11.2,18.2,55,0.00,,---,0.00,VWS V14.01,2013-03-06 15:35:00,
2013-03-06 09:39:00,53.6,35.9,30.36,NE,39,12.2,18.2,51,0.00,,---,0.00,VWS V14.01,2013-03-06 15:39:00,
2013-03-06 09:40:00,54.7,38.9,30.35,NNE,28,17.2,18.2,55,0.00,,---,0.00,VWS V14.01,2013-03-06 15:40:00,
2013-03-06 09:44:00,53.9,36.7,30.36,NNE,31,11.2,16.2,52,0.00,,---,0.00,VWS V14.01,2013-03-06 15:44:00,
2013-03-06 09:45:00,54.5,38.7,30.34,NE,53,13.2,21.2,55,0.00,,---,0.00,VWS V14.01,2013-03-06 15:45:00,
2013-03-06 09:49:00,53.9,36.2,30.36,North,5,9.2,18.2,51,0.00,,---,0.00,VWS V14.01,2013-03-06 15:49:00,
2013-03-06 09:50:00,55.0,38.7,30.34,NNE,13,13.2,17.2,54,0.00,,---,0.00,VWS V14.01,2013-03-06 15:50:00,
2013-03-06 09:54:00,54.2,37.0,30.36,North,5,7.2,16.2,52,0.00,,---,0.00,VWS V14.01,2013-03-06 15:54:00,
2013-03-06 09:55:00,55.9,39.0,30.34,NE,37,11.2,22.2,53,0.00,,---,0.00,VWS V14.01,2013-03-06 15:55:00,
2013-03-06 09:59:00,54.1,36.9,30.36,NNE,26,11.2,16.2,52,0.00,,---,0.00,VWS V14.01,2013-03-06 15:59:00,
2013-03-06 10:00:00,56.2,39.3,30.33,North,355,12.2,18.2,53,0.00,,---,0.00,VWS V14.01,2013-03-06 16:00:00,
2013-03-06 10:04:00,54.4,37.2,30.36,North,11,5.2,17.2,52,0.00,,---,0.00,VWS V14.01,2013-03-06 16:04:00,
2013-03-06 10:05:00,56.3,39.4,30.33,NE,36,14.2,19.2,53,0.00,,---,0.00,VWS V14.01,2013-03-06 16:05:00,
2013-03-06 10:09:00,54.1,36.9,30.36,NE,38,10.2,18.2,52,0.00,,---,0.00,VWS V14.01,2013-03-06 16:09:00,
2013-03-06 10:10:00,56.6,39.2,30.33,ENE,59,14.2,20.2,52,0.00,,---,0.00,VWS V14.01,2013-03-06 16:10:00,
2013-03-06 10:14:00,54.1,37.4,30.36,NNE,32,11.2,19.2,53,0.00,,---,0.00,VWS V14.01,2013-03-06 16:14:00,
2013-03-06 10:15:00,56.7,39.3,30.33,NE,56,12.2,17.2,52,0.00,,---,0.00,VWS V14.01,2013-03-06 16:15:00,
2013-03-06 10:19:00,54.2,37.5,30.35,NNE,28,15.2,20.2,53,0.00,,---,0.00,VWS V14.01,2013-03-06 16:19:00,
2013-03-06 10:20:00,57.2,39.2,30.33,NE,51,10.2,17.2,51,0.00,,---,0.00,VWS V14.01,2013-03-06 16:20:00,
2013-03-06 10:24:00,53.6,37.4,30.35,NNE,20,10.2,20.2,54,0.00,,---,0.00,VWS V14.01,2013-03-06 16:24:00,
2013-03-06 10:25:00,57.2,39.2,30.33,NE,37,7.2,18.2,51,0.00,,---,0.00,VWS V14.01,2013-03-06 16:25:00,
2013-03-06 10:29:00,54.2,37.9,30.35,NE,55,13.2,17.2,54,0.00,,---,0.00,VWS V14.01,2013-03-06 16:29:00,
2013-03-06 10:30:00,57.6,39.6,30.33,NE,44,15.2,19.2,51,0.00,,---,0.00,VWS V14.01,2013-03-06 16:30:00,
2013-03-06 10:34:00,54.4,38.6,30.35,NE,44,13.2,16.2,55,0.00,,---,0.00,VWS V14.01,2013-03-06 16:34:00,
2013-03-06 10:35:00,57.3,39.3,30.33,ENE,64,10.2,17.2,51,0.00,,---,0.00,VWS V14.01,2013-03-06 16:35:00,
2013-03-06 10:39:00,54.5,38.7,30.35,North,9,12.2,18.2,55,0.00,,---,0.00,VWS V14.01,2013-03-06 16:39:00,
2013-03-06 10:40:00,57.3,39.3,30.33,NE,55,13.2,17.2,51,0.00,,---,0.00,VWS V14.01,2013-03-06 16:40:00,
2013-03-06 10:44:00,54.7,38.4,30.35,NNW,347,16.2,18.2,54,0.00,,---,0.00,VWS V14.01,2013-03-06 16:44:00,
2013-03-06 10:45:00,57.5,39.5,30.32,NE,50,6.2,16.2,51,0.00,,---,0.00,VWS V14.01,2013-03-06 16:45:00,
2013-03-06 10:49:00,54.7,38.9,30.34,NNE,22,11.2,17.2,55,0.00,,---,0.00,VWS V14.01,2013-03-06 16:49:00,
2013-03-06 10:50:00,56.9,39.5,30.32,ENE,57,9.2,16.2,52,0.00,,---,0.00,VWS V14.01,2013-03-06 16:50:00,
2013-03-06 10:54:00,55.6,39.7,30.34,NE,56,8.2,17.2,55,0.00,,---,0.00,VWS V14.01,2013-03-06 16:54:00,
2013-03-06 10:55:00,57.0,39.6,30.32,NNE,16,13.2,16.2,52,0.00,,---,0.00,VWS V14.01,2013-03-06 16:55:00,
2013-03-06 10:59:00,56.2,39.3,30.34,NE,45,16.2,16.2,53,0.00,,---,0.00,VWS V14.01,2013-03-06 16:59:00,
2013-03-06 11:00:00,57.5,39.5,30.32,NNE,23,9.2,16.2,51,0.00,,---,0.00,VWS V14.01,2013-03-06 17:00:00,
2013-03-06 11:04:00,56.3,39.4,30.33,NNE,22,10.2,19.2,53,0.00,,---,0.00,VWS V14.01,2013-03-06 17:04:00,
2013-03-06 11:05:00,58.3,39.8,30.32,ENE,59,11.2,14.2,50,0.00,,---,0.00,VWS V14.01,2013-03-06 17:05:00,
2013-03-06 11:09:00,56.7,39.3,30.33,ENE,76,12.2,20.2,52,0.00,,---,0.00,VWS V14.01,2013-03-06 17:09:00,
2013-03-06 11:10:00,58.0,40.5,30.32,ENE,64,10.2,15.2,52,0.00,,---,0.00,VWS V14.01,2013-03-06 17:10:00,
2013-03-06 11:14:00,56.9,39.5,30.33,ENE,57,14.2,17.2,52,0.00,,---,0.00,VWS V14.01,2013-03-06 17:14:00,
2013-03-06 11:15:00,57.6,40.1,30.32,ENE,74,15.2,16.2,52,0.00,,---,0.00,VWS V14.01,2013-03-06 17:15:00,
2013-03-06 11:19:00,57.2,39.8,30.33,NE,38,15.2,17.2,52,0.00,,---,0.00,VWS V14.01,2013-03-06 17:19:00,
2013-03-06 11:20:00,57.6,40.1,30.32,NNE,25,13.2,19.2,52,0.00,,---,0.00,VWS V14.01,2013-03-06 17:20:00,
2013-03-06 11:24:00,57.2,39.2,30.33,NE,43,13.2,14.2,51,0.00,,---,0.00,VWS V14.01,2013-03-06 17:24:00,
2013-03-06 11:25:00,58.1,40.6,30.32,ENE,76,10.2,17.2,52,0.00,,---,0.00,VWS V14.01,2013-03-06 17:25:00,
2013-03-06 11:29:00,57.3,39.3,30.33,ENE,70,9.2,19.2,51,0.00,,---,0.00,VWS V14.01,2013-03-06 17:29:00,
2013-03-06 11:30:00,58.1,40.6,30.30,NE,50,11.2,18.2,52,0.00,,---,0.00,VWS V14.01,2013-03-06 17:30:00,
2013-03-06 11:34:00,57.5,39.0,30.33,NE,35,13.2,17.2,50,0.00,,---,0.00,VWS V14.01,2013-03-06 17:34:00,
2013-03-06 11:35:00,58.3,40.8,30.30,NE,55,12.2,18.2,52,0.00,,---,0.00,VWS V14.01,2013-03-06 17:35:00,
2013-03-06 11:39:00,57.3,38.8,30.33,ENE,78,14.2,15.2,50,0.00,,---,0.00,VWS V14.01,2013-03-06 17:39:00,
2013-03-06 11:40:00,58.4,41.3,30.30,ENE,69,11.2,18.2,53,0.00,,---,0.00,VWS V14.01,2013-03-06 17:40:00,
2013-03-06 11:44:00,57.3,39.8,30.33,NE,38,9.2,16.2,52,0.00,,---,0.00,VWS V14.01,2013-03-06 17:44:00,
2013-03-06 11:45:00,58.3,41.3,30.29,ENE,67,12.2,17.2,53,0.00,,---,0.00,VWS V14.01,2013-03-06 17:45:00,
2013-03-06 11:49:00,57.2,39.8,30.32,ENE,71,11.2,16.2,52,0.00,,---,0.00,VWS V14.01,2013-03-06 17:49:00,
2013-03-06 11:50:00,58.3,41.3,30.29,ENE,57,11.2,16.2,53,0.00,,---,0.00,VWS V14.01,2013-03-06 17:50:00,
2013-03-06 11:54:00,56.9,39.5,30.32,NE,34,12.2,16.2,52,0.00,,---,0.00,VWS V14.01,2013-03-06 17:54:00,
2013-03-06 11:55:00,58.1,42.0,30.29,NNE,31,9.2,15.2,55,0.00,,---,0.00,VWS V14.01,2013-03-06 17:55:00,
2013-03-06 11:59:00,57.3,39.8,30.32,NE,37,7.2,13.2,52,0.00,,---,0.00,VWS V14.01,2013-03-06 17:59:00,
2013-03-06 12:00:00,58.7,42.6,30.29,ENE,65,13.2,16.2,55,0.00,,---,0.00,VWS V14.01,2013-03-06 18:00:00,
2013-03-06 12:04:00,58.3,40.3,30.32,NE,39,10.2,14.2,51,0.00,,---,0.00,VWS V14.01,2013-03-06 18:04:00,
2013-03-06 12:05:00,59.0,42.4,30.29,NE,52,8.2,17.2,54,0.00,,---,0.00,VWS V14.01,2013-03-06 18:05:00,
2013-03-06 12:09:00,58.0,40.5,30.32,NNE,29,8.2,15.2,52,0.00,,---,0.00,VWS V14.01,2013-03-06 18:09:00,
2013-03-06 12:10:00,58.4,42.3,30.29,NE,34,8.2,15.2,55,0.00,,---,0.00,VWS V14.01,2013-03-06 18:10:00,
2013-03-06 12:14:00,58.1,40.1,30.32,NE,38,12.2,16.2,51,0.00,,---,0.00,VWS V14.01,2013-03-06 18:14:00,
2013-03-06 12:15:00,59.3,43.2,30.29,NNE,19,5.2,16.2,55,0.00,,---,0.00,VWS V14.01,2013-03-06 18:15:00,
2013-03-06 12:19:00,57.5,41.0,30.32,ENE,65,15.2,17.2,54,0.00,,---,0.00,VWS V14.01,2013-03-06 18:19:00,
2013-03-06 12:20:00,59.5,43.3,30.29,North,10,15.2,21.2,55,0.00,,---,0.00,VWS V14.01,2013-03-06 18:20:00,
2013-03-06 12:24:00,58.0,40.5,30.32,NNE,33,14.2,17.2,52,0.00,,---,0.00,VWS V14.01,2013-03-06 18:24:00,
2013-03-06 12:25:00,59.0,43.3,30.29,NE,54,13.2,15.2,56,0.00,,---,0.00,VWS V14.01,2013-03-06 18:25:00,
2013-03-06 12:29:00,58.1,40.6,30.32,NE,44,18.2,18.2,52,0.00,,---,0.00,VWS V14.01,2013-03-06 18:29:00,
2013-03-06 12:30:00,58.9,43.2,30.28,NE,37,11.2,16.2,56,0.00,,---,0.00,VWS V14.01,2013-03-06 18:30:00,
2013-03-06 12:34:00,58.3,40.8,30.30,NE,53,10.2,16.2,52,0.00,,---,0.00,VWS V14.01,2013-03-06 18:34:00,
2013-03-06 12:35:00,59.3,44.1,30.28,ENE,68,6.2,13.2,57,0.00,,---,0.00,VWS V14.01,2013-03-06 18:35:00,
2013-03-06 12:39:00,59.0,40.9,30.30,NNE,28,12.2,16.2,51,0.00,,---,0.00,VWS V14.01,2013-03-06 18:39:00,
2013-03-06 12:40:00,59.5,43.8,30.28,ENE,73,6.2,14.2,56,0.00,,---,0.00,VWS V14.01,2013-03-06 18:40:00,
2013-03-06 12:44:00,58.4,41.3,30.30,NE,36,7.2,15.2,53,0.00,,---,0.00,VWS V14.01,2013-03-06 18:44:00,
2013-03-06 12:45:00,59.2,44.0,30.27,ENE,71,11.2,15.2,57,0.00,,---,0.00,VWS V14.01,2013-03-06 18:45:00,
2013-03-06 12:49:00,58.1,41.6,30.29,ENE,65,7.2,15.2,54,0.00,,---,0.00,VWS V14.01,2013-03-06 18:49:00,
2013-03-06 12:50:00,59.2,44.5,30.27,NE,56,9.2,15.2,58,0.00,,---,0.00,VWS V14.01,2013-03-06 18:50:00,
2013-03-06 12:54:00,58.3,41.8,30.29,ENE,63,11.2,15.2,54,0.00,,---,0.00,VWS V14.01,2013-03-06 18:54:00,
2013-03-06 12:55:00,58.9,44.2,30.27,ENE,74,7.2,14.2,58,0.00,,---,0.00,VWS V14.01,2013-03-06 18:55:00,
2013-03-06 12:59:00,58.3,42.2,30.29,NNE,33,5.2,16.2,55,0.00,,---,0.00,VWS V14.01,2013-03-06 18:59:00,
2013-03-06 13:00:00,58.9,44.6,30.27,NE,42,6.2,15.2,59,0.00,,---,0.00,VWS V14.01,2013-03-06 19:00:00,
2013-03-06 13:04:00,59.0,42.4,30.29,NE,48,7.2,17.2,54,0.00,,---,0.00,VWS V14.01,2013-03-06 19:04:00,
2013-03-06 13:05:00,59.9,44.7,30.27,ENE,59,5.2,11.2,57,0.00,,---,0.00,VWS V14.01,2013-03-06 19:05:00,
2013-03-06 13:09:00,58.4,42.3,30.29,East,80,8.2,15.2,55,0.00,,---,0.00,VWS V14.01,2013-03-06 19:09:00,
2013-03-06 13:10:00,59.6,45.3,30.27,NE,34,10.2,14.2,59,0.00,,---,0.00,VWS V14.01,2013-03-06 19:10:00,
2013-03-06 13:14:00,58.9,42.8,30.29,NE,40,7.2,14.2,55,0.00,,---,0.00,VWS V14.01,2013-03-06 19:14:00,
2013-03-06 13:15:00,60.1,45.7,30.26,ENE,75,7.2,13.2,59,0.00,,---,0.00,VWS V14.01,2013-03-06 19:15:00,
2013-03-06 13:19:00,59.8,43.6,30.29,NE,45,12.2,15.2,55,0.00,,---,0.00,VWS V14.01,2013-03-06 19:19:00,
2013-03-06 13:20:00,60.1,45.7,30.26,East,83,10.2,13.2,59,0.00,,---,0.00,VWS V14.01,2013-03-06 19:20:00,
2013-03-06 13:24:00,59.0,43.3,30.29,NE,51,13.2,15.2,56,0.00,,---,0.00,VWS V14.01,2013-03-06 19:24:00,
2013-03-06 13:25:00,60.7,45.8,30.26,East,83,10.2,12.2,58,0.00,,---,0.00,VWS V14.01,2013-03-06 19:25:00,
2013-03-06 13:29:00,58.9,43.7,30.29,NE,46,11.2,16.2,57,0.00,,---,0.00,VWS V14.01,2013-03-06 19:29:00,
2013-03-06 13:30:00,60.4,45.6,30.25,NE,54,2.2,13.2,58,0.00,,---,0.00,VWS V14.01,2013-03-06 19:30:00,
2013-03-06 13:34:00,59.2,43.5,30.28,NNE,31,4.2,13.2,56,0.00,,---,0.00,VWS V14.01,2013-03-06 19:34:00,
2013-03-06 13:35:00,61.2,45.4,30.25,East,101,7.2,11.2,56,0.00,,---,0.00,VWS V14.01,2013-03-06 19:35:00,
2013-03-06 13:39:00,59.5,43.8,30.28,NE,37,12.2,14.2,56,0.00,,---,0.00,VWS V14.01,2013-03-06 19:39:00,
2013-03-06 13:40:00,61.2,45.9,30.25,East,90,6.2,10.2,57,0.00,,---,0.00,VWS V14.01,2013-03-06 19:40:00,
2013-03-06 13:44:00,59.5,43.8,30.28,ENE,61,12.2,15.2,56,0.00,,---,0.00,VWS V14.01,2013-03-06 19:44:00,
2013-03-06 13:45:00,60.7,44.9,30.24,ENE,70,7.2,13.2,56,0.00,,---,0.00,VWS V14.01,2013-03-06 19:45:00,
2013-03-06 13:49:00,59.0,45.2,30.27,ENE,64,13.2,15.2,60,0.00,,---,0.00,VWS V14.01,2013-03-06 19:49:00,
2013-03-06 13:50:00,60.5,45.7,30.24,East,86,6.2,12.2,58,0.00,,---,0.00,VWS V14.01,2013-03-06 19:50:00,
2013-03-06 13:54:00,59.2,44.0,30.27,NE,49,12.2,14.2,57,0.00,,---,0.00,VWS V14.01,2013-03-06 19:54:00,
2013-03-06 13:55:00,60.4,45.6,30.24,ESE,103,5.2,12.2,58,0.00,,---,0.00,VWS V14.01,2013-03-06 19:55:00,
2013-03-06 13:59:00,59.0,44.7,30.27,NE,44,12.2,15.2,59,0.00,,---,0.00,VWS V14.01,2013-03-06 19:59:00,
2013-03-06 14:00:00,60.7,46.3,30.23,East,86,6.2,12.2,59,0.00,,---,0.00,VWS V14.01,2013-03-06 20:00:00,
2013-03-06 14:04:00,59.6,45.3,30.27,East,80,11.2,11.2,59,0.00,,---,0.00,VWS V14.01,2013-03-06 20:04:00,
2013-03-06 14:05:00,60.7,46.8,30.23,ENE,74,11.2,13.2,60,0.00,,---,0.00,VWS V14.01,2013-03-06 20:05:00,
2013-03-06 14:09:00,59.6,44.8,30.27,NE,54,7.2,12.2,58,0.00,,---,0.00,VWS V14.01,2013-03-06 20:09:00,
2013-03-06 14:10:00,60.9,46.5,30.23,East,97,12.2,14.2,59,0.00,,---,0.00,VWS V14.01,2013-03-06 20:10:00,
2013-03-06 14:14:00,59.9,45.5,30.27,ENE,57,6.2,13.2,59,0.00,,---,0.00,VWS V14.01,2013-03-06 20:14:00,
2013-03-06 14:15:00,60.4,46.5,30.23,East,98,10.2,14.2,60,0.00,,---,0.00,VWS V14.01,2013-03-06 20:15:00,
2013-03-06 14:19:00,59.9,45.5,30.26,ENE,72,7.2,13.2,59,0.00,,---,0.00,VWS V14.01,2013-03-06 20:19:00,
2013-03-06 14:20:00,60.7,45.8,30.23,ENE,66,5.2,12.2,58,0.00,,---,0.00,VWS V14.01,2013-03-06 20:20:00,
2013-03-06 14:24:00,60.2,45.4,30.26,East,84,10.2,12.2,58,0.00,,---,0.00,VWS V14.01,2013-03-06 20:24:00,
2013-03-06 14:25:00,60.7,45.8,30.23,East,91,11.2,12.2,58,0.00,,---,0.00,VWS V14.01,2013-03-06 20:25:00,
2013-03-06 14:29:00,60.5,45.7,30.26,ENE,72,9.2,13.2,58,0.00,,---,0.00,VWS V14.01,2013-03-06 20:29:00,
2013-03-06 14:30:00,60.2,46.3,30.23,East,92,5.2,11.2,60,0.00,,---,0.00,VWS V14.01,2013-03-06 20:30:00,
2013-03-06 14:34:00,61.2,45.4,30.25,East,90,5.2,10.2,56,0.00,,---,0.00,VWS V14.01,2013-03-06 20:34:00,
2013-03-06 14:35:00,60.5,46.1,30.23,ENE,57,5.2,13.2,59,0.00,,---,0.00,VWS V14.01,2013-03-06 20:35:00,
2013-03-06 14:39:00,61.3,46.4,30.25,East,86,5.2,10.2,58,0.00,,---,0.00,VWS V14.01,2013-03-06 20:39:00,
2013-03-06 14:40:00,59.8,45.0,30.23,ESE,109,7.2,13.2,58,0.00,,---,0.00,VWS V14.01,2013-03-06 20:40:00,
2013-03-06 14:44:00,60.7,44.9,30.25,ESE,103,6.2,13.2,56,0.00,,---,0.00,VWS V14.01,2013-03-06 20:44:00,
2013-03-06 14:45:00,60.2,45.4,30.22,East,80,4.2,13.2,58,0.00,,---,0.00,VWS V14.01,2013-03-06 20:45:00,
2013-03-06 14:49:00,60.7,45.4,30.24,NE,49,6.2,11.2,57,0.00,,---,0.00,VWS V14.01,2013-03-06 20:49:00,
2013-03-06 14:50:00,60.7,45.4,30.22,East,86,7.2,9.2,57,0.00,,---,0.00,VWS V14.01,2013-03-06 20:50:00,
2013-03-06 14:54:00,60.4,46.0,30.24,East,83,7.2,12.2,59,0.00,,---,0.00,VWS V14.01,2013-03-06 20:54:00,
2013-03-06 14:55:00,60.7,45.4,30.22,ENE,74,5.2,13.2,57,0.00,,---,0.00,VWS V14.01,2013-03-06 20:55:00,
2013-03-06 14:59:00,60.5,46.1,30.24,East,83,6.2,10.2,59,0.00,,---,0.00,VWS V14.01,2013-03-06 20:59:00,
2013-03-06 15:00:00,60.2,44.9,30.21,ENE,73,4.2,15.2,57,0.00,,---,0.00,VWS V14.01,2013-03-06 21:00:00,
2013-03-06 15:04:00,60.7,46.3,30.23,East,91,10.2,13.2,59,0.00,,---,0.00,VWS V14.01,2013-03-06 21:04:00,
2013-03-06 15:05:00,59.8,45.5,30.21,ENE,76,7.2,13.2,59,0.00,,---,0.00,VWS V14.01,2013-03-06 21:05:00,
2013-03-06 15:09:00,60.9,46.9,30.23,SE,133,7.2,14.2,60,0.00,,---,0.00,VWS V14.01,2013-03-06 21:09:00,
2013-03-06 15:10:00,59.8,45.0,30.21,ENE,72,5.2,11.2,58,0.00,,---,0.00,VWS V14.01,2013-03-06 21:10:00,
2013-03-06 15:14:00,60.1,46.2,30.23,NE,50,6.2,14.2,60,0.00,,---,0.00,VWS V14.01,2013-03-06 21:14:00,
2013-03-06 15:15:00,60.2,44.9,30.20,ENE,75,10.2,12.2,57,0.00,,---,0.00,VWS V14.01,2013-03-06 21:15:00,
2013-03-06 15:19:00,61.0,46.1,30.23,East,82,10.2,12.2,58,0.00,,---,0.00,VWS V14.01,2013-03-06 21:19:00,
2013-03-06 15:20:00,60.1,44.8,30.20,East,88,8.2,14.2,57,0.00,,---,0.00,VWS V14.01,2013-03-06 21:20:00,
2013-03-06 15:24:00,60.9,46.0,30.23,ENE,71,12.2,12.2,58,0.00,,---,0.00,VWS V14.01,2013-03-06 21:24:00,
2013-03-06 15:25:00,60.5,45.7,30.20,ESE,113,9.2,12.2,58,0.00,,---,0.00,VWS V14.01,2013-03-06 21:25:00,
2013-03-06 15:29:00,60.2,45.8,30.23,East,86,5.2,11.2,59,0.00,,---,0.00,VWS V14.01,2013-03-06 21:29:00,
2013-03-06 15:30:00,60.1,45.3,30.20,East,88,8.2,12.2,58,0.00,,---,0.00,VWS V14.01,2013-03-06 21:30:00,
2013-03-06 15:34:00,60.4,46.0,30.23,East,96,9.2,13.2,59,0.00,,---,0.00,VWS V14.01,2013-03-06 21:34:00,
2013-03-06 15:35:00,59.5,45.2,30.20,East,84,6.2,12.2,59,0.00,,---,0.00,VWS V14.01,2013-03-06 21:35:00,
2013-03-06 15:39:00,60.1,45.3,30.23,ENE,63,9.2,13.2,58,0.00,,---,0.00,VWS V14.01,2013-03-06 21:39:00,
2013-03-06 15:40:00,59.2,44.9,30.20,East,84,6.2,12.2,59,0.00,,---,0.00,VWS V14.01,2013-03-06 21:40:00,
2013-03-06 15:44:00,60.5,45.7,30.23,East,80,10.2,12.2,58,0.00,,---,0.00,VWS V14.01,2013-03-06 21:44:00,
2013-03-06 15:45:00,59.0,45.2,30.20,ENE,59,12.2,12.2,60,0.00,,---,0.00,VWS V14.01,2013-03-06 21:45:00,
2013-03-06 15:49:00,60.5,45.2,30.22,East,96,4.2,9.2,57,0.00,,---,0.00,VWS V14.01,2013-03-06 21:49:00,
2013-03-06 15:50:00,58.9,45.5,30.20,East,84,5.2,12.2,61,0.00,,---,0.00,VWS V14.01,2013-03-06 21:50:00,
2013-03-06 15:54:00,60.7,45.4,30.22,East,79,6.2,11.2,57,0.00,,---,0.00,VWS V14.01,2013-03-06 21:54:00,
2013-03-06 15:55:00,59.8,45.9,30.20,East,94,8.2,8.2,60,0.00,,---,0.00,VWS V14.01,2013-03-06 21:55:00,
2013-03-06 15:59:00,60.2,45.4,30.22,East,79,10.2,15.2,58,0.00,,---,0.00,VWS V14.01,2013-03-06 21:59:00,
2013-03-06 16:00:00,59.5,45.6,30.20,ENE,66,5.2,10.2,60,0.00,,---,0.00,VWS V14.01,2013-03-06 22:00:00,
2013-03-06 16:04:00,59.8,45.0,30.21,ENE,69,7.2,13.2,58,0.00,,---,0.00,VWS V14.01,2013-03-06 22:04:00,
2013-03-06 16:05:00,59.2,45.3,30.20,ESE,109,8.2,12.2,60,0.00,,---,0.00,VWS V14.01,2013-03-06 22:05:00,
2013-03-06 16:09:00,59.9,45.1,30.21,East,91,9.2,11.2,58,0.00,,---,0.00,VWS V14.01,2013-03-06 22:09:00,
2013-03-06 16:10:00,59.2,45.8,30.20,East,94,7.2,10.2,61,0.00,,---,0.00,VWS V14.01,2013-03-06 22:10:00,
2013-03-06 16:14:00,60.2,44.9,30.21,ENE,67,8.2,12.2,57,0.00,,---,0.00,VWS V14.01,2013-03-06 22:14:00,
2013-03-06 16:15:00,58.9,45.9,30.18,ENE,69,4.2,11.2,62,0.00,,---,0.00,VWS V14.01,2013-03-06 22:15:00,
2013-03-06 16:19:00,60.1,45.3,30.20,ENE,76,5.2,14.2,58,0.00,,---,0.00,VWS V14.01,2013-03-06 22:19:00,
2013-03-06 16:20:00,58.4,45.9,30.18,ENE,76,10.2,12.2,63,0.00,,---,0.00,VWS V14.01,2013-03-06 22:20:00,
2013-03-06 16:24:00,60.4,45.6,30.20,ENE,77,5.2,11.2,58,0.00,,---,0.00,VWS V14.01,2013-03-06 22:24:00,
2013-03-06 16:25:00,58.3,46.2,30.18,ENE,74,8.2,12.2,64,0.00,,---,0.00,VWS V14.01,2013-03-06 22:25:00,
2013-03-06 16:29:00,60.1,45.3,30.20,East,86,5.2,11.2,58,0.00,,---,0.00,VWS V14.01,2013-03-06 22:29:00,
2013-03-06 16:30:00,58.4,45.9,30.18,East,88,6.2,8.2,63,0.00,,---,0.00,VWS V14.01,2013-03-06 22:30:00,
2013-03-06 16:34:00,59.6,45.3,30.19,ENE,76,12.2,12.2,59,0.00,,---,0.00,VWS V14.01,2013-03-06 22:34:00,
2013-03-06 16:35:00,58.4,46.3,30.18,NE,55,6.2,8.2,64,0.00,,---,0.00,VWS V14.01,2013-03-06 22:35:00,
2013-03-06 16:39:00,59.3,45.4,30.19,ESE,117,7.2,12.2,60,0.00,,---,0.00,VWS V14.01,2013-03-06 22:39:00,
2013-03-06 16:40:00,58.4,46.7,30.18,ENE,66,5.2,11.2,65,0.00,,---,0.00,VWS V14.01,2013-03-06 22:40:00,
2013-03-06 16:44:00,59.0,45.2,30.19,NE,51,6.2,10.2,60,0.00,,---,0.00,VWS V14.01,2013-03-06 22:44:00,
2013-03-06 16:45:00,58.6,46.5,30.19,ENE,76,4.2,10.2,64,0.00,,---,0.00,VWS V14.01,2013-03-06 22:45:00,
2013-03-06 16:49:00,58.9,45.5,30.19,ENE,72,11.2,12.2,61,0.00,,---,0.00,VWS V14.01,2013-03-06 22:49:00,
2013-03-06 16:50:00,58.7,46.2,30.19,ENE,70,6.2,8.2,63,0.00,,---,0.00,VWS V14.01,2013-03-06 22:50:00,
2013-03-06 16:54:00,59.5,46.1,30.19,ENE,74,4.2,8.2,61,0.00,,---,0.00,VWS V14.01,2013-03-06 22:54:00,
2013-03-06 16:55:00,58.4,46.7,30.19,East,81,5.2,8.2,65,0.00,,---,0.00,VWS V14.01,2013-03-06 22:55:00,
2013-03-06 16:59:00,59.5,45.6,30.19,East,95,6.2,10.2,60,0.00,,---,0.00,VWS V14.01,2013-03-06 22:59:00,
2013-03-06 17:00:00,58.3,46.6,30.19,East,89,5.2,9.2,65,0.00,,---,0.00,VWS V14.01,2013-03-06 23:00:00,
2013-03-06 17:04:00,59.2,45.8,30.20,East,92,8.2,10.2,61,0.00,,---,0.00,VWS V14.01,2013-03-06 23:04:00,
2013-03-06 17:05:00,58.3,46.6,30.19,East,96,3.2,11.2,65,0.00,,---,0.00,VWS V14.01,2013-03-06 23:05:00,
2013-03-06 17:09:00,59.2,45.3,30.20,ESE,103,2.2,10.2,60,0.00,,---,0.00,VWS V14.01,2013-03-06 23:09:00,
2013-03-06 17:10:00,58.1,46.8,30.19,East,100,3.2,8.2,66,0.00,,---,0.00,VWS V14.01,2013-03-06 23:10:00,
2013-03-06 17:14:00,59.0,46.0,30.20,East,99,7.2,11.2,62,0.00,,---,0.00,VWS V14.01,2013-03-06 23:14:00,
2013-03-06 17:15:00,58.0,47.1,30.19,East,99,6.2,8.2,67,0.00,,---,0.00,VWS V14.01,2013-03-06 23:15:00,
2013-03-06 17:19:00,58.6,46.1,30.18,East,99,6.2,12.2,63,0.00,,---,0.00,VWS V14.01,2013-03-06 23:19:00,
2013-03-06 17:20:00,57.6,47.1,30.19,ESE,113,2.2,8.2,68,0.00,,---,0.00,VWS V14.01,2013-03-06 23:20:00,
2013-03-06 17:24:00,58.3,46.2,30.18,ENE,61,7.2,12.2,64,0.00,,---,0.00,VWS V14.01,2013-03-06 23:24:00,
2013-03-06 17:25:00,57.3,47.2,30.19,ESE,104,4.2,7.2,69,0.00,,---,0.00,VWS V14.01,2013-03-06 23:25:00,
2013-03-06 17:29:00,58.3,45.8,30.18,East,101,5.2,8.2,63,0.00,,---,0.00,VWS V14.01,2013-03-06 23:29:00,
2013-03-06 17:30:00,57.2,47.1,30.19,ESE,103,5.2,7.2,69,0.00,,---,0.00,VWS V14.01,2013-03-06 23:30:00,
2013-03-06 17:34:00,58.4,46.3,30.18,ENE,68,5.2,8.2,64,0.00,,---,0.00,VWS V14.01,2013-03-06 23:34:00,
2013-03-06 17:35:00,57.0,47.3,30.19,East,94,3.2,7.2,70,0.00,,---,0.00,VWS V14.01,2013-03-06 23:35:00,
2013-03-06 17:39:00,58.4,46.3,30.18,East,91,8.2,10.2,64,0.00,,---,0.00,VWS V14.01,2013-03-06 23:39:00,
2013-03-06 17:40:00,57.0,47.3,30.19,East,91,3.2,6.2,70,0.00,,---,0.00,VWS V14.01,2013-03-06 23:40:00,
2013-03-06 17:44:00,58.4,45.9,30.18,East,85,5.2,10.2,63,0.00,,---,0.00,VWS V14.01,2013-03-06 23:44:00,
2013-03-06 17:45:00,56.9,47.2,30.18,East,90,3.2,6.2,70,0.00,,---,0.00,VWS V14.01,2013-03-06 23:45:00,
2013-03-06 17:49:00,58.7,46.6,30.19,East,80,5.2,7.2,64,0.00,,---,0.00,VWS V14.01,2013-03-06 23:49:00,
2013-03-06 17:50:00,56.9,47.6,30.18,East,85,4.2,6.2,71,0.00,,---,0.00,VWS V14.01,2013-03-06 23:50:00,
2013-03-06 17:54:00,58.4,46.3,30.19,East,80,7.2,8.2,64,0.00,,---,0.00,VWS V14.01,2013-03-06 23:54:00,
2013-03-06 17:55:00,56.7,47.4,30.18,East,85,1.2,5.2,71,0.00,,---,0.00,VWS V14.01,2013-03-06 23:55:00,
2013-03-06 17:59:00,58.3,47.0,30.19,East,90,5.2,9.2,66,0.00,,---,0.00,VWS V14.01,2013-03-06 23:59:00,
2013-03-06 18:00:00,56.7,47.8,30.19,East,86,3.2,6.2,72,0.00,,---,0.00,VWS V14.01,2013-03-07 00:00:00,
2013-03-06 18:04:00,58.3,47.0,30.19,East,88,3.2,11.2,66,0.00,,---,0.00,VWS V14.01,2013-03-07 00:04:00,
2013-03-06 18:05:00,56.7,47.8,30.19,East,86,1.2,5.2,72,0.00,,---,0.00,VWS V14.01,2013-03-07 00:05:00,
2013-03-06 18:09:00,58.1,46.4,30.19,ESE,105,5.2,8.2,65,0.00,,---,0.00,VWS V14.01,2013-03-07 00:09:00,
2013-03-06 18:10:00,56.6,47.7,30.19,East,86,5.2,5.2,72,0.00,,---,0.00,VWS V14.01,2013-03-07 00:10:00,
2013-03-06 18:14:00,58.0,47.1,30.19,East,99,2.2,8.2,67,0.00,,---,0.00,VWS V14.01,2013-03-07 00:14:00,
2013-03-06 18:15:00,56.6,48.1,30.18,East,85,2.2,6.2,73,0.00,,---,0.00,VWS V14.01,2013-03-07 00:15:00,
2013-03-06 18:19:00,57.6,46.7,30.19,ESE,115,6.2,8.2,67,0.00,,---,0.00,VWS V14.01,2013-03-07 00:19:00,
2013-03-06 18:20:00,56.6,48.4,30.18,East,86,5.2,6.2,74,0.00,,---,0.00,VWS V14.01,2013-03-07 00:20:00,
2013-03-06 18:24:00,57.5,47.0,30.19,ESE,105,4.2,6.2,68,0.00,,---,0.00,VWS V14.01,2013-03-07 00:24:00,
2013-03-06 18:25:00,56.6,48.4,30.18,East,85,3.2,6.2,74,0.00,,---,0.00,VWS V14.01,2013-03-07 00:25:00,
2013-03-06 18:29:00,57.2,47.1,30.19,East,98,3.2,7.2,69,0.00,,---,0.00,VWS V14.01,2013-03-07 00:29:00,
2013-03-06 18:30:00,56.6,48.4,30.18,East,82,6.2,7.2,74,0.00,,---,0.00,VWS V14.01,2013-03-07 00:30:00,
2013-03-06 18:34:00,57.2,47.1,30.19,East,94,4.2,7.2,69,0.00,,---,0.00,VWS V14.01,2013-03-07 00:34:00,
2013-03-06 18:35:00,56.7,48.5,30.18,East,85,4.2,6.2,74,0.00,,---,0.00,VWS V14.01,2013-03-07 00:35:00,
2013-03-06 18:39:00,57.0,47.3,30.19,East,93,2.2,5.2,70,0.00,,---,0.00,VWS V14.01,2013-03-07 00:39:00,
2013-03-06 18:40:00,56.7,48.5,30.18,East,88,1.2,7.2,74,0.00,,---,0.00,VWS V14.01,2013-03-07 00:40:00,
2013-03-06 18:44:00,56.9,47.2,30.19,East,90,1.2,6.2,70,0.00,,---,0.00,VWS V14.01,2013-03-07 00:44:00,
2013-03-06 18:45:00,56.7,48.5,30.19,East,88,5.2,5.2,74,0.00,,---,0.00,VWS V14.01,2013-03-07 00:45:00,
2013-03-06 18:49:00,56.9,47.6,30.18,East,85,6.2,6.2,71,0.00,,---,0.00,VWS V14.01,2013-03-07 00:49:00,
2013-03-06 18:50:00,56.9,48.7,30.19,East,89,4.2,6.2,74,0.00,,---,0.00,VWS V14.01,2013-03-07 00:50:00,
2013-03-06 18:54:00,56.9,47.6,30.18,East,85,2.2,5.2,71,0.00,,---,0.00,VWS V14.01,2013-03-07 00:54:00,
2013-03-06 18:55:00,56.9,48.7,30.19,East,89,2.2,5.2,74,0.00,,---,0.00,VWS V14.01,2013-03-07 00:55:00,
2013-03-06 18:59:00,56.7,47.4,30.18,East,86,5.2,6.2,71,0.00,,---,0.00,VWS V14.01,2013-03-07 00:59:00,
2013-03-06 19:00:00,56.9,48.7,30.19,East,88,3.2,6.2,74,0.00,,---,0.00,VWS V14.01,2013-03-07 01:00:00,
2013-03-06 19:04:00,56.7,47.8,30.19,East,86,2.2,5.2,72,0.00,,---,0.00,VWS V14.01,2013-03-07 01:04:00,
2013-03-06 19:05:00,56.9,48.7,30.19,East,88,4.2,6.2,74,0.00,,---,0.00,VWS V14.01,2013-03-07 01:05:00,
2013-03-06 19:09:00,56.6,47.7,30.19,East,86,1.2,3.2,72,0.00,,---,0.00,VWS V14.01,2013-03-07 01:09:00,
2013-03-06 19:10:00,57.0,48.8,30.19,East,88,3.2,5.2,74,0.00,,---,0.00,VWS V14.01,2013-03-07 01:10:00,
2013-03-06 19:14:00,56.6,48.1,30.19,East,85,3.2,6.2,73,0.00,,---,0.00,VWS V14.01,2013-03-07 01:14:00,
2013-03-06 19:15:00,57.0,48.8,30.19,East,88,5.2,5.2,74,0.00,,---,0.00,VWS V14.01,2013-03-07 01:15:00,
2013-03-06 19:19:00,56.6,48.1,30.18,East,86,3.2,6.2,73,0.00,,---,0.00,VWS V14.01,2013-03-07 01:19:00,
2013-03-06 19:20:00,57.0,48.8,30.19,East,89,3.2,5.2,74,0.00,,---,0.00,VWS V14.01,2013-03-07 01:20:00,
2013-03-06 19:24:00,56.6,48.4,30.18,East,84,5.2,6.2,74,0.00,,---,0.00,VWS V14.01,2013-03-07 01:24:00,
2013-03-06 19:25:00,57.0,49.2,30.19,East,89,2.2,6.2,75,0.00,,---,0.00,VWS V14.01,2013-03-07 01:25:00,
2013-03-06 19:29:00,56.6,48.4,30.18,East,87,2.2,7.2,74,0.00,,---,0.00,VWS V14.01,2013-03-07 01:29:00,
2013-03-06 19:30:00,57.2,49.4,30.19,East,92,3.2,7.2,75,0.00,,---,0.00,VWS V14.01,2013-03-07 01:30:00,
2013-03-06 19:34:00,56.6,48.4,30.18,East,85,4.2,6.2,74,0.00,,---,0.00,VWS V14.01,2013-03-07 01:34:00,
2013-03-06 19:35:00,57.2,49.4,30.19,East,92,3.2,6.2,75,0.00,,---,0.00,VWS V14.01,2013-03-07 01:35:00,
2013-03-06 19:39:00,56.7,48.5,30.18,East,88,4.2,7.2,74,0.00,,---,0.00,VWS V14.01,2013-03-07 01:39:00,
2013-03-06 19:40:00,57.2,49.4,30.19,East,92,5.2,5.2,75,0.00,,---,0.00,VWS V14.01,2013-03-07 01:40:00,
2013-03-06 19:44:00,56.7,48.5,30.18,East,88,3.2,5.2,74,0.00,,---,0.00,VWS V14.01,2013-03-07 01:44:00,
2013-03-06 19:45:00,57.2,49.4,30.19,East,92,2.2,5.2,75,0.00,,---,0.00,VWS V14.01,2013-03-07 01:45:00,
2013-03-06 19:49:00,56.7,48.5,30.19,East,89,4.2,5.2,74,0.00,,---,0.00,VWS V14.01,2013-03-07 01:49:00,
2013-03-06 19:50:00,57.2,49.4,30.19,East,92,5.2,5.2,75,0.00,,---,0.00,VWS V14.01,2013-03-07 01:50:00,
2013-03-06 19:54:00,56.9,48.7,30.19,East,89,4.2,5.2,74,0.00,,---,0.00,VWS V14.01,2013-03-07 01:54:00,
2013-03-06 19:55:00,57.2,49.4,30.19,East,93,3.2,5.2,75,0.00,,---,0.00,VWS V14.01,2013-03-07 01:55:00,
2013-03-06 19:59:00,56.9,48.7,30.19,East,88,4.2,6.2,74,0.00,,---,0.00,VWS V14.01,2013-03-07 01:59:00,
2013-03-06 20:00:00,57.2,49.4,30.20,East,93,1.2,4.2,75,0.00,,---,0.00,VWS V14.01,2013-03-07 02:00:00,
2013-03-06 20:04:00,56.9,48.7,30.19,East,88,4.2,6.2,74,0.00,,---,0.00,VWS V14.01,2013-03-07 02:04:00,
2013-03-06 20:05:00,57.2,49.4,30.20,East,94,3.2,5.2,75,0.00,,---,0.00,VWS V14.01,2013-03-07 02:05:00,
2013-03-06 20:09:00,56.9,48.7,30.19,East,88,3.2,5.2,74,0.00,,---,0.00,VWS V14.01,2013-03-07 02:09:00,
2013-03-06 20:10:00,57.2,49.4,30.20,East,94,2.2,4.2,75,0.00,,---,0.00,VWS V14.01,2013-03-07 02:10:00,
2013-03-06 20:14:00,57.0,48.8,30.19,East,88,2.2,4.2,74,0.00,,---,0.00,VWS V14.01,2013-03-07 02:14:00,
2013-03-06 20:15:00,57.2,49.4,30.20,East,94,1.2,4.2,75,0.00,,---,0.00,VWS V14.01,2013-03-07 02:15:00,
2013-03-06 20:19:00,57.0,48.8,30.19,East,89,4.2,5.2,74,0.00,,---,0.00,VWS V14.01,2013-03-07 02:19:00,
2013-03-06 20:20:00,57.0,49.2,30.20,East,94,2.2,4.2,75,0.00,,---,0.00,VWS V14.01,2013-03-07 02:20:00,
2013-03-06 20:24:00,57.0,49.2,30.19,East,89,2.2,6.2,75,0.00,,---,0.00,VWS V14.01,2013-03-07 02:24:00,
2013-03-06 20:25:00,57.0,49.2,30.20,East,94,1.2,3.2,75,0.00,,---,0.00,VWS V14.01,2013-03-07 02:25:00,
2013-03-06 20:29:00,57.0,49.2,30.19,East,90,3.2,6.2,75,0.00,,---,0.00,VWS V14.01,2013-03-07 02:29:00,
2013-03-06 20:30:00,56.9,49.4,30.21,East,94,1.2,2.2,76,0.00,,---,0.00,VWS V14.01,2013-03-07 02:30:00,
2013-03-06 20:34:00,57.2,49.4,30.19,East,92,2.2,6.2,75,0.00,,---,0.00,VWS V14.01,2013-03-07 02:34:00,
2013-03-06 20:35:00,56.9,49.4,30.21,East,94,1.2,1.2,76,0.00,,---,0.00,VWS V14.01,2013-03-07 02:35:00,
2013-03-06 20:39:00,57.2,49.4,30.19,East,92,3.2,4.2,75,0.00,,---,0.00,VWS V14.01,2013-03-07 02:39:00,
2013-03-06 20:40:00,56.6,49.1,30.21,East,94,1.2,1.2,76,0.00,,---,0.00,VWS V14.01,2013-03-07 02:40:00,
2013-03-06 20:44:00,57.2,49.4,30.19,East,92,2.2,5.2,75,0.00,,---,0.00,VWS V14.01,2013-03-07 02:44:00,
2013-03-06 20:45:00,56.5,49.0,30.21,East,94,1.2,1.2,76,0.00,,---,0.00,VWS V14.01,2013-03-07 02:45:00,
2013-03-06 20:49:00,57.2,49.4,30.19,East,93,4.2,5.2,75,0.00,,---,0.00,VWS V14.01,2013-03-07 02:49:00,
2013-03-06 20:50:00,56.3,49.2,30.21,East,94,1.2,1.2,77,0.00,,---,0.00,VWS V14.01,2013-03-07 02:50:00,
2013-03-06 20:54:00,57.2,49.4,30.19,East,93,3.2,5.2,75,0.00,,---,0.00,VWS V14.01,2013-03-07 02:54:00,
2013-03-06 20:55:00,56.0,48.9,30.21,East,94,1.2,1.2,77,0.00,,---,0.00,VWS V14.01,2013-03-07 02:55:00,
2013-03-06 20:59:00,57.2,49.4,30.19,East,93,1.2,4.2,75,0.00,,---,0.00,VWS V14.01,2013-03-07 02:59:00,
2013-03-06 21:00:00,55.6,48.5,30.20,East,94,1.2,1.2,77,0.00,,---,0.00,VWS V14.01,2013-03-07 03:00:00,
2013-03-06 21:04:00,57.2,49.4,30.19,East,93,5.2,5.2,75,0.00,,---,0.00,VWS V14.01,2013-03-07 03:04:00,
2013-03-06 21:05:00,55.3,48.6,30.20,East,94,1.2,1.2,78,0.00,,---,0.00,VWS V14.01,2013-03-07 03:05:00,
2013-03-06 21:09:00,57.2,49.4,30.19,East,94,3.2,4.2,75,0.00,,---,0.00,VWS V14.01,2013-03-07 03:09:00,
2013-03-06 21:10:00,55.1,48.7,30.20,East,94,1.2,1.2,79,0.00,,---,0.00,VWS V14.01,2013-03-07 03:10:00,
2013-03-06 21:14:00,57.2,49.4,30.19,East,94,3.2,4.2,75,0.00,,---,0.00,VWS V14.01,2013-03-07 03:14:00,
2013-03-06 21:15:00,55.1,49.0,30.19,East,94,1.2,1.2,80,0.00,,---,0.00,VWS V14.01,2013-03-07 03:15:00,
2013-03-06 21:19:00,57.2,49.4,30.20,East,94,1.2,4.2,75,0.00,,---,0.00,VWS V14.01,2013-03-07 03:19:00,
2013-03-06 21:20:00,55.3,49.2,30.19,East,94,1.2,1.2,80,0.00,,---,0.00,VWS V14.01,2013-03-07 03:20:00,
2013-03-06 21:24:00,57.0,49.2,30.20,East,94,1.2,3.2,75,0.00,,---,0.00,VWS V14.01,2013-03-07 03:24:00,
2013-03-06 21:25:00,55.3,49.2,30.19,East,94,1.2,1.2,80,0.00,,---,0.00,VWS V14.01,2013-03-07 03:25:00,
2013-03-06 21:29:00,56.9,49.4,30.20,East,94,1.2,2.2,76,0.00,,---,0.00,VWS V14.01,2013-03-07 03:29:00,
2013-03-06 21:30:00,55.3,49.6,30.19,East,94,1.2,1.2,81,0.00,,---,0.00,VWS V14.01,2013-03-07 03:30:00,
2013-03-06 21:34:00,56.9,49.4,30.21,East,94,1.2,1.2,76,0.00,,---,0.00,VWS V14.01,2013-03-07 03:34:00,
2013-03-06 21:35:00,55.4,49.7,30.19,East,94,1.2,1.2,81,0.00,,---,0.00,VWS V14.01,2013-03-07 03:35:00,
2013-03-06 21:39:00,56.7,49.2,30.21,East,94,1.2,1.2,76,0.00,,---,0.00,VWS V14.01,2013-03-07 03:39:00,
2013-03-06 21:40:00,55.4,49.7,30.19,East,94,1.2,1.2,81,0.00,,---,0.00,VWS V14.01,2013-03-07 03:40:00,
2013-03-06 21:44:00,56.6,49.1,30.21,East,94,1.2,1.2,76,0.00,,---,0.00,VWS V14.01,2013-03-07 03:44:00,
2013-03-06 21:45:00,55.4,49.7,30.19,East,94,1.2,1.2,81,0.00,,---,0.00,VWS V14.01,2013-03-07 03:45:00,
2013-03-06 21:49:00,56.3,48.8,30.21,East,94,1.2,1.2,76,0.00,,---,0.00,VWS V14.01,2013-03-07 03:49:00,
2013-03-06 21:50:00,55.1,49.4,30.19,East,94,1.2,1.2,81,0.00,,---,0.00,VWS V14.01,2013-03-07 03:50:00,
2013-03-06 21:54:00,56.2,49.1,30.21,East,94,1.2,1.2,77,0.00,,---,0.00,VWS V14.01,2013-03-07 03:54:00,
2013-03-06 21:55:00,54.7,49.0,30.19,East,94,1.2,1.2,81,0.00,,---,0.00,VWS V14.01,2013-03-07 03:55:00,
2013-03-06 21:59:00,55.7,48.6,30.21,East,94,1.2,1.2,77,0.00,,---,0.00,VWS V14.01,2013-03-07 03:59:00,
2013-03-06 22:00:00,54.2,48.5,30.18,East,94,1.2,1.2,81,0.00,,---,0.00,VWS V14.01,2013-03-07 04:00:00,
2013-03-06 22:04:00,55.3,48.6,30.20,East,94,1.2,1.2,78,0.00,,---,0.00,VWS V14.01,2013-03-07 04:04:00,
2013-03-06 22:05:00,54.1,48.4,30.18,East,94,1.2,1.2,81,0.00,,---,0.00,VWS V14.01,2013-03-07 04:05:00,
2013-03-06 22:09:00,55.1,48.7,30.20,East,94,1.2,1.2,79,0.00,,---,0.00,VWS V14.01,2013-03-07 04:09:00,
2013-03-06 22:10:00,53.9,48.5,30.18,East,94,1.2,1.2,82,0.00,,---,0.00,VWS V14.01,2013-03-07 04:10:00,
2013-03-06 22:14:00,55.1,49.0,30.20,East,94,1.2,1.2,80,0.00,,---,0.00,VWS V14.01,2013-03-07 04:14:00,
2013-03-06 22:15:00,53.9,48.9,30.18,East,94,1.2,1.2,83,0.00,,---,0.00,VWS V14.01,2013-03-07 04:15:00,
2013-03-06 22:19:00,55.3,49.2,30.19,East,94,1.2,1.2,80,0.00,,---,0.00,VWS V14.01,2013-03-07 04:19:00,
2013-03-06 22:20:00,54.1,49.4,30.18,East,94,1.2,1.2,84,0.00,,---,0.00,VWS V14.01,2013-03-07 04:20:00,
2013-03-06 22:24:00,55.3,49.2,30.19,East,94,1.2,1.2,80,0.00,,---,0.00,VWS V14.01,2013-03-07 04:24:00,
2013-03-06 22:25:00,54.2,49.8,30.18,East,94,1.2,1.2,85,0.00,,---,0.00,VWS V14.01,2013-03-07 04:25:00,
2013-03-06 22:29:00,55.3,49.6,30.19,East,94,1.2,1.2,81,0.00,,---,0.00,VWS V14.01,2013-03-07 04:29:00,
2013-03-06 22:30:00,54.1,49.4,30.17,East,94,1.2,1.2,84,0.00,,---,0.00,VWS V14.01,2013-03-07 04:30:00,
2013-03-06 22:34:00,55.4,49.7,30.19,East,94,1.2,1.2,81,0.00,,---,0.00,VWS V14.01,2013-03-07 04:34:00,
2013-03-06 22:35:00,53.9,49.2,30.17,East,94,1.2,1.2,84,0.00,,---,0.00,VWS V14.01,2013-03-07 04:35:00,
2013-03-06 22:39:00,55.4,49.7,30.19,East,94,1.2,1.2,81,0.00,,---,0.00,VWS V14.01,2013-03-07 04:39:00,
2013-03-06 22:40:00,54.2,50.1,30.17,East,94,1.2,1.2,86,0.00,,---,0.00,VWS V14.01,2013-03-07 04:40:00,
2013-03-06 22:44:00,55.4,49.7,30.19,East,94,1.2,1.2,81,0.00,,---,0.00,VWS V14.01,2013-03-07 04:44:00,
2013-03-06 22:45:00,54.7,50.9,30.17,East,94,1.2,2.2,87,0.00,,---,0.00,VWS V14.01,2013-03-07 04:45:00,
2013-03-06 22:49:00,55.1,49.4,30.19,East,94,1.2,1.2,81,0.00,,---,0.00,VWS V14.01,2013-03-07 04:49:00,
2013-03-06 22:50:00,55.3,51.5,30.17,East,94,2.2,3.2,87,0.00,,---,0.00,VWS V14.01,2013-03-07 04:50:00,
2013-03-06 22:54:00,54.8,49.1,30.19,East,94,1.2,1.2,81,0.00,,---,0.00,VWS V14.01,2013-03-07 04:54:00,
2013-03-06 22:55:00,55.6,51.8,30.17,East,94,1.2,2.2,87,0.00,,---,0.00,VWS V14.01,2013-03-07 04:55:00,
2013-03-06 22:59:00,54.5,48.8,30.19,East,94,1.2,1.2,81,0.00,,---,0.00,VWS V14.01,2013-03-07 04:59:00,
2013-03-06 23:00:00,54.4,48.7,30.19,East,94,1.2,1.2,81,0.00,,---,0.00,VWS V14.01,2013-03-07 05:00:00,
2013-03-06 23:05:00,54.1,48.4,30.18,East,94,1.2,1.2,81,0.00,,---,0.00,VWS V14.01,2013-03-07 05:05:00,
2013-03-06 23:10:00,53.9,48.5,30.18,East,94,1.2,1.2,82,0.00,,---,0.00,VWS V14.01,2013-03-07 05:10:00,
2013-03-06 23:15:00,53.9,48.9,30.18,East,94,1.2,1.2,83,0.00,,---,0.00,VWS V14.01,2013-03-07 05:15:00,
2013-03-06 23:20:00,54.1,49.4,30.18,East,94,1.2,1.2,84,0.00,,---,0.00,VWS V14.01,2013-03-07 05:20:00,
2013-03-06 23:25:00,54.2,49.8,30.18,East,94,1.2,1.2,85,0.00,,---,0.00,VWS V14.01,2013-03-07 05:25:00,
2013-03-06 23:30:00,54.1,49.4,30.17,East,94,1.2,1.2,84,0.00,,---,0.00,VWS V14.01,2013-03-07 05:30:00,
2013-03-06 23:35:00,53.9,49.2,30.17,East,94,1.2,1.2,84,0.00,,---,0.00,VWS V14.01,2013-03-07 05:35:00,
2013-03-06 23:40:00,54.2,50.1,30.17,East,94,1.2,1.2,86,0.00,,---,0.00,VWS V14.01,2013-03-07 05:40:00,
2013-03-06 23:45:00,54.7,50.9,30.17,East,94,1.2,2.2,87,0.00,,---,0.00,VWS V14.01,2013-03-07 05:45:00,
2013-03-06 23:50:00,55.3,51.5,30.17,East,94,1.2,3.2,87,0.00,,---,0.00,VWS V14.01,2013-03-07 05:50:00,
2013-03-06 23:55:00,55.6,51.8,30.17,East,94,1.2,2.2,87,0.00,,---,0.00,VWS V14.01,2013-03-07 05:55:00,